STARLINK-1797 (46698 NORAD) Tracking and Keplerian Element Data

This shows tracking and keplerian element data for the satellite.

Feedback or suggestion? Click here.




ElementValue
Catalog46698
NameSTARLINK-1797
Epoch Orbit175
Epoch Day20.91667824
Epoch Year2021
RAAN13.2991
Inclination53.0528
Eccentricity0.0001687
Argument of Perigee75.4229
Mean Anonmoly99.5446
Mean Motion15.06374505
Decay Rate0.00027384
L11 46698U 20073AE 21020.91667824 .00027384 00000-0 18514-2 0 9998
L22 46698 53.0528 13.2991 0001687 75.4229 99.5446 15.06374505 1750

Live tracking and technical data element details for STARLINK-1797 (NORAD 46698). STARLINK-1797 can be tracked NOW for your location showing map with azimuth and elevation plus other details from your city location.

Track the satellite on the map from your city or location and see movement details for azimuth, elevation, latitude, longitude, range, height, and movement on the map or in text.







IsCatalogInMostPopularTable: catalog: 46698, numindb: 35
Update: records affected: 1



GetName: 46698 STARLINK-1797

Hit Count: updated at: Fri, 22 Jan 2021 16:40:25 GMT